Location: ??????
(42.0089°N, 44.3281°E)
Time: 11:48:29
(UTC+00:00)

USA 267 - Visible Passes

Search period start: 29 May 2022 00:00
Search period end: 08 June 2022 00:00
Orbit: 1100 x 1107 km, 123.0° (Epoch: 07 May)

Date Brightness Start Highest point End Pass type
(mag) Time Alt. Az. Time Alt. Az. Time Alt. Az.
29 May 5.3 16:52:55 10° NE 16:58:18 28° NNW 17:03:39 10° WNW visible
29 May 5.3 18:34:57 10° NE 18:39:58 24° N 18:44:58 10° NW visible
29 May 4.5 20:15:52 10° E 20:21:50 39° NNE 20:27:48 10° NW visible
29 May 3.1 22:00:51 29° SE 22:04:29 79° SW 22:11:04 10° NW visible
29 May 4.4 23:48:06 20° WSW 23:48:06 20° WSW 23:52:42 10° WNW visible
30 May 5.4 17:52:55 10° NE 17:57:54 24° N 18:02:53 10° NW visible
30 May 5.0 19:34:10 10° ENE 19:39:35 29° NNE 19:44:59 10° NW visible
30 May 3.7 21:15:22 10° ESE 21:21:48 61° NE 21:28:14 10° NW visible
30 May 3.6 23:02:23 30° S 23:04:56 41° SW 23:11:05 10° WNW visible
31 May 5.3 17:10:26 10° NE 17:15:48 28° NNW 17:21:09 10° WNW visible
31 May 5.3 18:52:27 10° NE 18:57:28 24° N 19:02:28 10° NW visible
31 May 4.5 20:33:22 10° E 20:39:21 39° NNE 20:45:19 10° NW visible
31 May 3.1 22:16:21 15° SE 22:22:00 79° SW 22:28:35 10° NW visible
01 Jun 4.4 00:03:33 17° SW 00:05:38 20° WSW 00:10:12 10° WNW visible
01 Jun 5.4 18:10:25 10° NE 18:15:25 24° N 18:20:24 10° NW visible
01 Jun 5.0 19:51:41 10° ENE 19:57:06 29° NNE 20:02:30 10° NW visible
01 Jun 3.7 21:32:53 10° ESE 21:39:18 61° NE 21:45:45 10° NW visible
01 Jun 3.6 23:16:46 12° SSE 23:22:27 41° SW 23:28:36 10° WNW visible
02 Jun 5.3 17:27:57 10° NE 17:33:19 28° NNW 17:38:40 10° WNW visible
02 Jun 5.3 19:09:58 10° NE 19:14:59 24° N 19:20:00 10° NW visible
02 Jun 4.5 20:50:53 10° E 20:56:51 39° NNE 21:02:50 10° NW visible
02 Jun 3.1 22:32:58 10° SE 22:39:31 78° SW 22:46:06 10° NW visible
03 Jun 4.4 00:18:38 10° SSW 00:23:09 20° WSW 00:27:42 10° WNW visible
03 Jun 5.4 18:27:56 10° NE 18:32:55 24° N 18:37:54 10° NW visible
03 Jun 5.1 20:09:11 10° ENE 20:14:36 29° NNE 20:20:01 10° NW visible
03 Jun 3.7 21:50:24 10° ESE 21:56:50 62° NE 22:03:17 10° NW visible
03 Jun 3.6 23:33:53 10° SSE 23:39:59 41° SW 23:46:07 10° WNW visible
04 Jun 5.3 17:45:28 10° NE 17:50:50 28° NNW 17:56:10 10° WNW visible
04 Jun 5.4 19:27:28 10° NE 19:32:30 24° N 19:37:30 10° NW visible
04 Jun 4.5 21:08:23 10° E 21:14:22 39° NNE 21:20:21 10° NW visible
04 Jun 3.1 22:50:29 10° SE 22:57:02 78° SW 23:03:37 10° NW visible
05 Jun 4.4 00:36:11 10° SSW 00:40:40 19° WSW 00:45:11 10° WNW visible
05 Jun 4.9 17:02:41 10° NE 17:08:35 38° NNW 17:14:29 10° W visible
05 Jun 5.5 18:45:27 10° NE 18:50:26 24° N 18:55:26 10° NW visible
05 Jun 5.1 20:26:41 10° ENE 20:32:07 29° NNE 20:37:32 10° NW visible
05 Jun 3.7 22:07:55 10° ESE 22:14:21 62° NE 22:20:48 10° NW visible
05 Jun 3.6 23:51:25 10° SSE 23:57:30 41° SW 00:03:37 10° WNW visible
06 Jun 5.3 18:02:59 10° NE 18:08:20 28° NNW 18:13:41 10° WNW visible
06 Jun 5.4 19:44:58 10° ENE 19:50:00 24° N 19:55:01 10° NW visible
06 Jun 4.5 21:25:54 10° E 21:31:53 40° NNE 21:37:52 10° NW visible
06 Jun 3.2 23:08:00 10° SE 23:14:33 78° SW 23:21:08 10° NW visible
07 Jun 4.9 17:20:12 10° NE 17:26:06 37° NNW 17:32:00 10° W visible
07 Jun 5.5 19:02:57 10° NE 19:07:57 24° N 19:12:56 10° NW visible
07 Jun 5.1 20:44:12 10° ENE 20:49:38 29° NNE 20:55:03 10° NW visible
07 Jun 3.7 22:25:25 10° ESE 22:31:52 62° NE 22:38:19 10° NW visible
